Regional Weather Roundup
Issued by NWS

Home | Current Version | Previous Version | Text Only | Print | Product List | Glossary On
Versions: 1 2 3 4 5 6 7 8 9 10 11 12 13 14 15 16 17 18 19 20 21 22 23 24 25 26 27 28 29 30 31 32 33 34 35 36 37 38 39 40 41 42 43 44 45 46 47 48 49 50
000
ASUS43 KLSX 210907
RWRMO

WEATHER SUMMARY FOR MISSOURI
NATIONAL WEATHER SERVICE SPRINGFIELD MO
400 AM CDT THU AUG 21 2014

NOTE: "FAIR" INDICATES FEW OR NO CLOUDS BELOW 12,000 FEET WITH NO
       SIGNIFICANT WEATHER AND/OR OBSTRUCTIONS TO VISIBILITY.
       CURRENT SKY AND/OR WEATHER CONDITIONS ARE NOT AVAILABLE FOR
       CHILLICOTHE AND FARMINGTON.

MOZ001>031-035>038-043-044-053-054-211000-
...NORTHERN AND WESTERN MISSOURI...

CITY           SKY/WX    TMP DP  RH WIND       PRES   REMARKS
KANSAS CTY INT PTCLDY    79  68  69 S16       29.88F
KANSAS C DTWN  PTCLDY    80  68  66 SW9       29.88S
LEE`S SUMMIT   PTCLDY    76  67  73 S12       29.91S
ST JOSEPH      MOCLDY    78  70  76 S10       29.85F
CHILLICOTHE      N/A     76  67  73 S7        29.90F
KIRKSVILLE     CLEAR     75  68  78 S8        29.92S

$$
MOZ066>068-077>081-088>096-101>105-211000-
...SOUTHWEST MISSOURI...

CITY           SKY/WX    TMP DP  RH WIND       PRES   REMARKS
SPRINGFIELD    CLEAR     74  67  78 S10       30.00R
JOPLIN         CLEAR     78  68  71 S13       29.96S

$$
MOZ032>034-039>042-045>050-055>058-069>072-211000-
...CENTRAL MISSOURI...

CITY           SKY/WX    TMP DP  RH WIND       PRES   REMARKS
COLUMBIA       CLEAR     72  69  90 S7        29.96S
JEFFERSON CITY CLEAR     73  68  84 E7        29.96R
ROLLA          PTCLDY    73  64  73 S8        29.99S
SEDALIA        CLEAR     77  66  68 S10       29.94F
WHITEMAN AFB   CLEAR     73  63  69 S10       29.92S
OSAGE BEACH    PTCLDY    72  64  78 SE3       29.97F

$$
MOZ051-052-059>065-211000-
...EAST CENTRAL MISSOURI...

CITY           SKY/WX    TMP DP  RH WIND       PRES   REMARKS
ST LOUIS INTL  PTCLDY    78  71  79 SW3       29.98R
SPIRIT OF STL  CLEAR     71  69  93 CALM      29.96R
ST CHARLES     CLEAR     71  70  96 CALM      29.96R FOG

$$
MOZ072>076-082>087-097>100-106>115-211000-
...SOUTH CENTRAL AND SOUTHEAST MISSOURI...

CITY           SKY/WX    TMP DP  RH WIND       PRES   REMARKS
CAPE GIRARDEAU PTCLDY    75  73  93 SE6       30.01R
FARMINGTON     MOCLDY    79  68  69 SW7       30.03S
POPLAR BLUFF   PTCLDY    75  71  87 SW5       30.00R
WEST PLAINS    PTCLDY    74  68  81 S5        30.05S

$$



USA.gov is the U.S. government's official web portal to all federal, state and local government web resources and services.